Theta_e
318 316 316 317 316 316 315 314 313 312 312 312 311 312 313 313 312 312 310 318 318 318 322 323 327 329 333 334 347 345 345 355 356 356 354 352 353 352 348 348 347 345 345 343 344
320 320 320 319 319 318 318 316 314 313 313 313 311 312 312 311 313 315 317 318 319 320 319 321 321 323 323 332 348 342 346 349 351 351 352 349 349 351 348 349 348 346 343 344 345
321 321 320 320 320 320 319 319 315 314 313 313 313 312 312 312 323 316 319 318 319 322 320 318 320 323 324 341 349 350 355 351 351 347 350 352 352 348 348 351 347 348 346 345 345
321 321 320 320 320 320 320 320 317 313 312 312 315 315 317 317 324 326 323 320 319 319 317 321 323 326 335 351 350 352 354 352 353 349 350 352 350 348 346 348 345 345 344 344 345
321 320 320 319 318 318 319 320 319 312 316 312 315 316 323 322 314 325 323 320 318 319 320 322 324 337 350 350 350 353 353 353 353 352 351 350 352 352 348 346 345 345 344 344 344
317 318 318 317 317 316 318 319 319 313 318 318 313 317 325 318 317 320 323 320 318 318 320 320 323 337 343 349 353 351 352 351 350 350 349 350 351 350 348 346 346 346 345 344 344
313 314 315 314 314 315 317 319 319 314 319 319 313 320 325 323 326 325 322 320 319 318 319 321 322 326 338 349 347 346 352 350 350 349 350 347 351 351 346 346 347 346 345 345 344
311 311 312 312 313 314 316 318 318 316 318 316 315 323 322 323 323 323 322 318 317 319 322 323 322 336 343 344 347 345 354 355 351 350 349 347 354 349 345 346 348 347 345 345 344
311 312 312 312 313 314 316 319 316 320 314 314 323 326 328 329 328 325 325 320 319 319 321 321 323 339 343 342 343 349 353 356 355 351 351 349 350 346 343 346 348 345 344 344 344
310 311 312 313 314 315 317 317 319 322 319 322 324 322 321 328 329 328 328 325 321 320 321 322 318 321 338 337 337 348 348 353 352 353 351 351 348 346 343 345 347 346 344 343 343
311 311 313 314 315 317 319 317 317 321 325 323 323 320 323 327 328 325 327 321 318 319 321 319 321 323 322 340 338 341 347 356 354 350 353 350 347 347 345 344 345 348 343 341 340
310 311 312 316 317 319 318 311 318 320 317 320 325 323 324 325 326 321 324 321 319 318 317 317 320 323 322 328 339 341 347 353 347 352 352 350 350 352 347 344 342 345 345 342 340
309 310 312 318 319 322 319 321 321 323 315 317 320 326 325 325 326 321 319 319 320 318 316 316 319 321 323 336 341 341 343 351 348 355 349 353 352 349 344 344 342 342 344 343 342
309 311 311 316 320 318 321 322 323 321 316 319 321 324 325 324 327 321 319 319 319 317 315 316 318 320 320 322 339 341 339 345 352 355 357 349 352 346 342 347 345 343 343 347 344
310 311 312 313 316 317 321 323 322 317 319 322 323 323 321 322 321 320 320 319 319 319 316 318 321 321 321 321 331 335 338 341 349 352 349 353 352 341 344 343 348 345 343 345 345
310 312 313 316 315 322 321 324 317 319 323 325 324 323 324 323 322 320 321 320 319 319 318 318 318 319 318 319 330 327 336 335 344 345 349 344 351 346 346 347 344 347 343 345 345
312 314 316 316 319 322 322 314 316 322 320 323 323 323 324 321 321 321 321 320 318 319 319 318 319 319 318 319 318 321 324 333 341 345 345 337 346 344 336 341 345 345 344 345 344
314 316 319 319 320 321 321 315 319 320 321 320 320 321 324 322 322 320 319 319 317 317 316 318 320 320 319 318 317 318 322 323 328 336 335 334 341 338 338 340 339 340 343 345 344
315 317 321 324 322 320 314 316 315 317 319 321 320 320 322 324 322 320 317 321 318 314 318 317 319 319 318 319 318 322 322 321 331 331 338 340 338 336 344 341 340 343 344 347 345
317 320 323 324 322 319 317 320 319 320 322 322 323 319 323 322 321 319 318 318 319 316 315 318 319 318 320 319 321 322 322 330 327 338 340 343 344 340 340 345 344 344 345 347 346
320 321 323 323 320 315 320 319 322 321 322 324 323 325 323 323 319 322 321 321 320 319 315 315 316 319 323 321 319 322 322 318 322 330 338 341 341 336 336 336 341 342 342 345 347
313 324 323 324 317 313 318 319 320 323 322 322 322 322 322 321 319 319 322 325 321 317 317 315 314 317 318 321 321 322 321 317 321 326 334 335 338 335 336 335 343 344 343 344 344
313 316 326 322 321 320 322 326 325 326 325 324 324 323 322 319 320 318 322 323 323 324 318 316 315 318 318 317 324 324 321 318 319 327 336 336 337 335 340 344 344 342 338 340 343
316 325 320 318 317 325 325 326 327 326 328 326 325 322 322 322 318 319 321 322 323 327 341 321 312 318 322 319 323 333 332 323 320 327 333 333 335 338 342 341 340 339 339 342 342
315 321 320 325 323 323 323 324 327 328 326 325 327 327 325 321 317 317 318 321 324 330 327 317 319 315 317 318 330 331 331 329 329 328 335 330 338 337 342 336 339 337 341 343 343
315 317 314 317 319 323 324 327 329 329 327 328 329 329 326 327 327 328 324 321 323 326 327 322 323 326 332 329 331 332 331 330 330 327 329 328 336 334 340 340 341 342 344 345 343
315 315 314 316 318 320 322 325 327 326 327 327 327 328 327 327 325 324 322 321 321 324 325 326 325 323 331 331 332 333 331 331 331 329 329 334 333 334 338 344 343 343 345 344 345
Wind_Speed
16 16 16 17 16 17 17 15 13 12 11 10 7 6 6 7 9 7 6 6 5 7 3 4 5 5 5 2 4 3 3 3 6 6 4 7 4 11 6 11 4 4 5 11 21
17 17 17 17 17 18 20 18 14 12 10 8 6 5 5 7 6 11 9 8 11 5 5 5 3 4 1 4 2 3 3 4 7 5 3 7 7 9 5 10 3 8 14 21 21
18 18 18 19 18 19 18 24 16 11 8 5 4 4 5 6 2 7 0 17 11 7 5 2 1 2 1 4 5 4 2 1 3 5 3 6 5 7 9 3 10 16 17 16 17
19 19 19 20 20 20 20 24 18 11 6 3 2 3 3 2 4 1 3 14 13 9 4 3 2 2 1 3 1 2 1 3 4 6 5 5 2 3 9 3 11 16 19 17 12
20 20 20 21 21 21 21 23 20 10 5 2 1 2 2 2 8 2 3 12 18 9 4 3 1 2 2 3 3 3 5 7 4 9 8 11 8 6 5 12 11 14 15 15 11
21 21 22 23 23 23 22 23 19 10 6 2 3 1 3 2 2 8 5 12 13 14 6 7 4 3 5 2 2 3 8 7 2 6 7 8 5 2 7 4 13 15 15 13 13
21 22 23 24 24 23 21 22 18 9 5 2 6 4 2 11 3 5 11 8 15 12 4 7 7 4 6 1 1 3 3 4 3 2 5 10 5 1 1 2 13 15 12 14 13
23 23 24 25 25 24 21 22 15 5 3 6 9 4 6 3 6 8 11 5 8 13 11 5 4 7 4 2 2 3 2 3 4 6 8 1 5 11 5 1 14 13 12 14 16
24 25 25 26 25 24 22 20 6 1 4 10 4 2 8 5 8 21 16 8 10 11 10 7 2 5 2 4 4 3 2 2 3 7 5 4 3 11 7 6 10 7 8 18 15
26 27 27 27 26 25 23 10 3 5 7 3 1 3 5 4 5 9 18 20 2 1 2 3 4 4 2 3 4 5 3 3 5 7 6 6 8 4 11 8 11 5 11 17 15
27 28 29 29 29 26 13 2 3 2 3 5 6 4 5 5 4 7 16 8 3 4 4 2 4 10 11 7 1 4 2 4 3 6 6 8 6 8 10 9 12 6 6 14 15
28 29 31 30 32 11 5 2 3 2 8 11 14 9 10 3 6 5 13 6 5 5 4 5 6 13 5 7 6 6 5 5 3 3 4 6 10 6 6 9 10 7 7 7 6
28 29 31 30 15 3 14 5 8 14 3 8 7 7 5 11 8 8 10 5 4 6 7 8 8 3 4 3 7 6 9 7 1 6 4 3 6 7 6 8 8 7 6 6 12
28 28 30 30 1 17 9 11 22 2 4 7 4 6 7 7 4 10 13 7 2 10 7 6 7 8 5 7 8 7 13 13 6 5 3 4 5 5 6 7 9 10 10 10 9
28 27 28 23 14 6 8 19 13 4 4 2 3 8 8 11 4 5 8 5 9 6 7 8 4 3 5 14 8 12 7 16 11 3 2 4 2 6 4 9 14 16 13 12 13
31 29 26 9 12 14 12 17 2 5 6 5 5 6 6 4 1 3 5 3 3 6 3 8 3 7 10 6 9 3 7 8 6 4 3 6 6 6 6 10 12 12 13 15 16
33 28 23 16 5 4 16 3 4 3 5 5 2 3 4 4 4 5 7 7 6 4 3 6 5 4 4 5 3 6 6 3 3 0 6 1 5 9 8 8 9 17 14 16 17
33 27 14 18 5 5 1 5 4 2 5 4 5 2 8 6 4 6 8 7 5 3 3 4 7 4 5 7 8 5 9 6 5 4 4 4 6 6 3 3 7 7 11 12 14
34 13 9 5 12 11 5 3 7 5 3 6 8 5 4 2 1 6 7 12 8 9 8 5 6 5 5 5 8 5 3 5 7 4 2 3 6 10 1 7 6 6 9 14 14
22 10 6 2 16 8 4 4 3 3 4 3 2 3 4 5 4 5 9 7 6 10 6 5 2 5 7 4 3 8 8 3 3 5 4 4 5 5 3 5 5 4 7 9 12
6 4 12 13 6 5 3 6 5 6 4 3 2 4 4 3 4 3 5 8 9 3 7 6 4 7 1 2 8 2 1 5 6 4 6 2 5 6 8 6 8 8 9 7 10
7 3 7 5 4 2 2 3 4 6 3 7 4 8 8 5 5 4 6 6 5 8 10 9 5 5 12 5 1 1 5 6 5 4 1 5 5 2 9 7 7 8 7 7 6
3 3 4 2 1 3 4 5 3 4 5 2 4 7 6 7 3 8 6 6 4 4 8 8 5 3 10 7 4 3 4 5 5 4 6 6 6 3 4 4 7 9 7 8 7
2 4 4 4 2 3 4 4 6 6 5 4 4 4 4 5 7 7 4 4 3 4 5 9 4 8 12 9 5 5 4 4 6 4 5 6 4 5 2 6 4 5 6 6 8
3 1 1 4 4 4 1 3 5 6 5 7 5 6 5 5 7 4 5 5 3 0 3 4 7 6 7 8 6 5 10 8 4 4 6 6 10 10 11 10 10 7 6 7 7
2 3 4 3 4 5 4 3 7 5 3 5 5 12 2 3 4 6 6 5 5 3 4 1 2 3 1 4 6 5 8 7 7 5 2 5 7 3 3 3 4 7 8 8 9
5 4 2 4 4 2 1 4 7 9 6 4 9 4 4 6 12 14 12 11 8 4 3 2 3 3 2 2 4 3 7 6 5 4 7 6 10 7 6 8 9 8 8 10 10
Wind_Direction
14 12 10 7 5 360 356 348 339 333 332 331 327 321 320 313 306 288 250 221 184 216 166 120 176 207 209 229 117 129 77 198 195 159 253 129 211 218 222 156 217 136 134 140 147
11 8 6 3 3 2 2 352 341 334 332 339 345 336 328 321 305 252 240 214 215 229 198 196 165 174 201 173 127 113 139 232 187 173 180 152 259 288 138 171 59 84 101 134 147
4 3 1 360 0 360 358 359 346 334 327 337 1 355 336 329 297 245 253 212 207 194 208 305 154 176 297 153 195 164 206 232 201 177 77 159 188 166 127 179 179 152 146 154 156
358 357 357 357 356 356 357 356 350 341 325 319 356 3 345 358 182 256 292 196 192 196 234 81 44 59 143 172 359 221 70 128 96 150 146 166 45 89 176 200 169 151 154 160 167
353 352 353 352 352 351 352 352 349 345 340 275 270 3 50 21 253 245 83 176 184 201 180 141 48 82 41 6 317 31 65 50 88 95 68 78 46 338 80 153 154 149 161 173 175
351 349 347 348 345 345 347 347 343 337 335 286 205 143 106 269 256 236 205 168 186 193 169 176 163 127 84 14 49 307 85 118 42 76 111 87 353 276 127 163 158 166 173 180 187
348 346 344 343 342 339 341 340 336 328 337 238 181 143 123 237 321 209 199 216 207 195 175 199 164 140 151 200 203 68 80 100 146 123 118 97 15 106 285 119 181 179 184 188 196
348 345 343 341 338 335 334 334 329 329 344 160 156 139 243 272 246 194 201 236 214 213 216 248 176 106 103 137 71 43 88 109 204 159 165 199 199 231 219 56 169 178 200 203 203
350 346 343 340 337 332 330 329 324 52 107 139 125 152 268 301 224 226 222 206 199 212 235 278 148 114 79 90 26 14 285 159 197 198 147 214 238 231 245 215 210 204 209 201 208
347 345 342 341 338 330 330 334 109 107 117 122 89 344 268 211 221 218 207 214 181 126 61 126 55 109 74 108 225 202 229 183 184 188 180 187 257 217 216 220 240 251 196 187 199
344 342 341 340 338 328 327 120 22 50 187 212 200 246 292 286 257 189 178 149 154 81 153 24 88 237 204 194 205 163 179 221 208 194 143 210 237 247 196 212 231 225 223 193 200
342 341 339 340 334 340 43 73 115 43 292 231 242 243 246 336 359 300 165 141 135 186 103 35 217 240 140 173 168 153 184 256 81 152 142 191 230 245 195 224 223 206 210 209 149
341 339 339 339 340 61 323 272 330 333 231 286 203 200 202 151 211 241 150 158 147 165 177 180 215 138 188 175 157 196 199 214 225 122 44 98 292 236 248 228 201 215 201 193 176
340 338 338 341 359 332 299 332 332 188 36 278 250 254 160 134 243 201 189 138 165 194 174 216 249 228 228 228 156 213 210 199 173 128 219 171 267 251 192 235 227 208 188 189 191
338 335 332 337 307 301 315 329 345 105 339 248 191 148 146 151 169 233 183 79 177 182 120 230 184 150 216 241 156 230 155 197 183 95 75 239 25 266 144 217 225 220 195 189 181
334 331 324 324 299 283 323 331 32 43 255 321 134 160 127 205 265 78 154 66 158 174 207 228 222 176 225 240 193 79 71 46 53 60 318 214 161 281 191 212 218 211 199 184 183
329 324 311 286 239 284 324 7 47 162 317 345 323 175 157 177 167 145 170 204 190 129 281 327 270 251 179 262 149 96 88 52 25 3 226 69 132 250 278 218 204 201 183 182 184
329 323 302 260 226 239 307 57 193 240 256 319 326 192 187 160 196 202 159 217 233 99 116 158 318 180 176 184 194 172 153 154 194 187 239 144 221 249 290 75 147 193 187 175 183
333 326 299 308 216 201 84 106 205 212 307 356 331 42 346 101 43 160 198 217 208 163 174 154 273 284 195 199 143 182 151 182 99 1 56 280 290 310 67 77 92 154 163 182 186
335 334 313 324 144 130 78 234 247 265 359 357 284 26 352 330 346 172 180 213 220 184 161 220 282 227 283 134 122 161 162 92 13 135 234 293 286 243 294 171 147 151 199 181 190
357 24 359 145 128 51 152 230 264 283 349 305 226 323 244 308 229 244 242 244 206 153 150 143 122 268 31 217 163 71 188 54 113 124 157 220 258 220 224 226 164 193 210 191 185
351 49 106 158 46 37 157 213 299 289 260 246 219 222 228 200 281 251 240 215 144 161 169 204 157 243 235 270 218 108 172 137 128 217 153 152 269 190 248 234 157 196 188 179 186
17 278 18 277 72 343 311 300 269 327 298 268 259 216 221 207 229 209 233 260 287 175 191 177 212 251 322 349 6 145 158 120 113 89 184 145 258 340 343 194 178 161 171 187 179
42 8 331 36 61 46 360 291 337 310 278 333 249 4 323 254 215 258 236 270 315 203 9 145 147 170 222 215 157 143 175 127 128 113 167 216 246 277 248 195 171 149 157 187 188
26 7 148 325 336 335 235 299 324 1 332 352 350 12 337 335 335 246 250 272 248 192 114 174 189 170 223 212 157 153 168 169 120 162 156 240 200 215 202 196 193 169 161 166 171
54 22 351 291 306 301 5 356 340 349 287 327 347 324 30 139 184 277 350 283 219 269 131 340 172 178 292 205 182 162 172 168 147 145 203 180 247 263 167 93 136 174 166 166 160
11 16 91 294 332 347 30 333 317 348 284 334 318 307 309 313 304 261 239 251 250 262 158 86 172 65 224 125 81 22 211 183 164 179 146 157 214 150 180 177 189 182 185 166 162